,,PA_Meas_PMT16A,,PR_Meas_QMR101_102,,RH_Meas_QMH101,,SR_Meas_QMS101,,TA_Meas_QMH101,,GenWind,,GenWind,
time,status,PA,status,PR,status,RH,status,SR,status,TA,status,DirAvg,status,SpdAvg,
2016-01-14, 08:16:04,VALID,918.558,VALID,0,VALID,104,VALID,84.5562,VALID,20.8925,VALID,139,VALID,1.26797,
2016-01-14, 08:17:04,VALID,918.527,VALID,0,VALID,104,VALID,88.8538,VALID,20.8925,VALID,146,VALID,0.585156,
2016-01-14, 08:18:04,VALID,918.547,VALID,0,VALID,104,VALID,92.8292,VALID,20.9136,VALID,156,VALID,1.14766,
2016-01-14, 08:19:04,VALID,918.546,VALID,0,VALID,104,VALID,98.631,VALID,20.9316,VALID,138,VALID,1.28594,
2016-01-14, 08:20:04,VALID,918.524,VALID,0,VALID,104,VALID,104.218,VALID,20.9331,VALID,140,VALID,1.2125,
2016-01-14, 08:21:04,VALID,918.511,VALID,0,VALID,104,VALID,111.846,VALID,20.9316,VALID,161,VALID,1.24141,
2016-01-14, 08:22:04,VALID,918.502,VALID,0,VALID,104,VALID,130.756,VALID,20.9706,VALID,158,VALID,0.402344,
2016-01-14, 08:23:04,VALID,918.495,VALID,0,VALID,104,VALID,165.997,VALID,21.0307,VALID,161,VALID,0.799609,
2016-01-14, 08:24:04,VALID,918.527,VALID,0,VALID,104,VALID,185.981,VALID,21.1087,VALID,144,VALID,0.910547,
2016-01-14, 08:25:04,VALID,918.526,VALID,0,VALID,104,VALID,194.791,VALID,21.1282,VALID,127,VALID,2.28086,
2016-01-14, 08:26:04,VALID,918.529,VALID,0,VALID,104,VALID,226.056,VALID,21.0876,VALID,154,VALID,1.02344,
2016-01-14, 08:27:04,VALID,918.479,VALID,0,VALID,104,VALID,199.303,VALID,21.1852,VALID,124,VALID,1.11914,
2016-01-14, 08:28:04,VALID,918.508,VALID,0.2,VALID,104,VALID,194.576,VALID,21.2859,VALID,107,VALID,1.36563,
2016-01-14, 08:29:04,VALID,918.531,VALID,0,VALID,104,VALID,201.774,VALID,21.3429,VALID,129,VALID,1.01055,
2016-01-14, 08:30:04,VALID,918.539,VALID,0,VALID,104,VALID,212.733,VALID,21.2827,VALID,126,VALID,1.77109,
2016-01-14, 08:31:04,VALID,918.559,VALID,0,VALID,104,VALID,220.147,VALID,21.3412,VALID,118,VALID,1.4832,
2016-01-14, 08:32:04,VALID,918.557,VALID,0,VALID,104,VALID,228.098,VALID,21.3608,VALID,135,VALID,1.63125,
2016-01-14, 08:33:04,VALID,918.588,VALID,0,VALID,104,VALID,234.114,VALID,21.3803,VALID,135,VALID,1.03164,
2016-01-14, 08:34:04,VALID,918.594,VALID,0,VALID,104,VALID,236.908,VALID,21.3803,VALID,139,VALID,1.58242,
2016-01-14, 08:35:04,VALID,918.61,VALID,0,VALID,104,VALID,236.693,VALID,21.4388,VALID,127,VALID,1.29062,
2016-01-14, 08:36:04,VALID,918.611,VALID,0,VALID,104,VALID,238.09,VALID,21.4778,VALID,151,VALID,0.961328,
2016-01-14, 08:37:04,VALID,918.61,VALID,0,VALID,104,VALID,241.313,VALID,21.5168,VALID,117,VALID,1.09805,
2016-01-14, 08:38:04,VALID,918.603,VALID,0,VALID,104,VALID,242.172,VALID,21.5363,VALID,144,VALID,0.795313,
2016-01-14, 08:39:04,VALID,918.594,VALID,0,VALID,104,VALID,241.635,VALID,21.5559,VALID,160,VALID,0.880859,
2016-01-14, 08:40:04,VALID,918.586,VALID,0,VALID,104,VALID,245.396,VALID,21.5363,VALID,127,VALID,1.77148,
2016-01-14, 08:41:04,VALID,918.574,VALID,0,VALID,104,VALID,269.248,VALID,21.5559,VALID,109,VALID,0.227344,
2016-01-14, 08:42:04,VALID,918.587,VALID,0,VALID,104,VALID,270.322,VALID,21.5932,VALID,171,VALID,1.59453,
2016-01-14, 08:43:04,VALID,918.584,VALID,0,VALID,104,VALID,273.867,VALID,21.6534,VALID,157,VALID,1.11797,
2016-01-14, 08:44:04,VALID,918.599,VALID,0,VALID,104,VALID,278.165,VALID,21.712,VALID,126,VALID,1.14492,
2016-01-14, 08:45:04,VALID,918.682,VALID,0,VALID,104,VALID,278.81,VALID,21.6924,VALID,157,VALID,1.37383,
2016-01-14, 08:46:04,VALID,918.708,VALID,0,VALID,104,VALID,282.785,VALID,21.6128,VALID,142,VALID,1.55977,
2016-01-14, 08:47:04,VALID,918.74,VALID,0,VALID,104,VALID,298.364,VALID,21.7688,VALID,124,VALID,1.83438,
2016-01-14, 08:48:04,VALID,918.737,VALID,0,VALID,104,VALID,301.05,VALID,21.8469,VALID,166,VALID,0.772656,
2016-01-14, 08:49:04,VALID,918.701,VALID,0,VALID,104,VALID,284.397,VALID,21.7705,VALID,134,VALID,1.95977,
2016-01-14, 08:50:04,VALID,918.703,VALID,0,VALID,104,VALID,271.719,VALID,21.8469,VALID,141,VALID,0.65,
2016-01-14, 08:51:04,VALID,918.685,VALID,0,VALID,104,VALID,267.099,VALID,21.8469,VALID,118,VALID,1.58398,
2016-01-14, 08:52:04,VALID,918.685,VALID,0,VALID,104,VALID,277.843,VALID,21.8469,VALID,133,VALID,1.51602,
2016-01-14, 08:53:04,VALID,918.702,VALID,0,VALID,104,VALID,275.479,VALID,21.8079,VALID,131,VALID,2.34023,
2016-01-14, 08:54:04,VALID,918.67,VALID,0,VALID,104,VALID,268.71,VALID,21.8095,VALID,95,VALID,1.36719,
2016-01-14, 08:55:04,VALID,918.7,VALID,0,VALID,104,VALID,260.437,VALID,21.9071,VALID,83,VALID,1.23906,
2016-01-14, 08:56:04,VALID,918.688,VALID,0,VALID,104,VALID,250.123,VALID,22.0242,VALID,79,VALID,1.60391,
2016-01-14, 08:57:04,VALID,918.675,VALID,0,VALID,104,VALID,254.528,VALID,22.0632,VALID,102,VALID,0.789844,
2016-01-14, 08:58:04,VALID,918.644,VALID,0,VALID,104,VALID,277.413,VALID,22.003,VALID,124,VALID,1.47656,
2016-01-14, 08:59:04,VALID,918.672,VALID,0,VALID,104,VALID,285.793,VALID,21.9071,VALID,115,VALID,2.15273,
2016-01-14, 09:00:04,VALID,918.645,VALID,0,VALID,104,VALID,285.256,VALID,21.9249,VALID,98,VALID,1.74727,
2016-01-14, 09:01:04,VALID,918.702,VALID,0,VALID,104,VALID,286.653,VALID,21.9054,VALID,107,VALID,2.38789,
2016-01-14, 09:02:04,VALID,918.685,VALID,0,VALID,104,VALID,288.372,VALID,21.9835,VALID,84,VALID,1.78242,
2016-01-14, 09:03:04,VALID,918.723,VALID,0,VALID,104,VALID,292.992,VALID,22.042,VALID,83,VALID,1.70977,
2016-01-14, 09:04:04,VALID,918.752,VALID,0,VALID,104,VALID,296.86,VALID,22.081,VALID,93,VALID,1.24531,
2016-01-14, 09:05:04,VALID,918.815,VALID,0,VALID,104,VALID,301.05,VALID,22.081,VALID,106,VALID,1.30156,
2016-01-14, 09:06:04,VALID,918.791,VALID,0,VALID,104,VALID,304.811,VALID,22.1005,VALID,120,VALID,1.13281,
2016-01-14, 09:07:04,VALID,918.848,VALID,0,VALID,104,VALID,301.587,VALID,22.1005,VALID,115,VALID,0.751953,
2016-01-14, 09:08:04,VALID,918.811,VALID,0,VALID,104,VALID,297.719,VALID,22.1201,VALID,132,VALID,1.19727,
2016-01-14, 09:09:04,VALID,918.845,VALID,0,VALID,104,VALID,289.232,VALID,22.2193,VALID,113,VALID,0.821094,
2016-01-14, 09:10:04,VALID,918.843,VALID,0,VALID,102.969,VALID,257.322,VALID,22.1201,VALID,92,VALID,1.93984,
2016-01-14, 09:11:04,VALID,918.856,VALID,0,VALID,102.977,VALID,218.965,VALID,22.1786,VALID,88,VALID,1.46875,
2016-01-14, 09:12:04,VALID,918.88,VALID,0,VALID,103.602,VALID,185.336,VALID,22.2371,VALID,115,VALID,1.23203,
2016-01-14, 09:13:04,VALID,918.907,VALID,0,VALID,103.793,VALID,159.872,VALID,22.2567,VALID,174,VALID,1.20547,
2016-01-14, 09:14:04,VALID,918.939,VALID,0,VALID,103.938,VALID,149.128,VALID,22.2762,VALID,122,VALID,0.0710938,
2016-01-14, 09:15:04,VALID,919.008,VALID,0,VALID,104,VALID,156.219,VALID,22.3542,VALID,155,VALID,0.0828125,
2016-01-14, 09:16:04,VALID,919.031,VALID,0,VALID,104,VALID,183.832,VALID,22.3347,VALID,161,VALID,0,
2016-01-14, 09:17:04,VALID,919.086,VALID,0,VALID,104,VALID,223.8,VALID,22.3347,VALID,190,VALID,0,
2016-01-14, 09:18:04,VALID,919.096,VALID,0,VALID,104,VALID,260.975,VALID,22.4323,VALID,176,VALID,0,
2016-01-14, 09:19:04,VALID,919.111,VALID,0,VALID,104,VALID,278.058,VALID,22.372,VALID,89,VALID,0,
2016-01-14, 09:20:04,VALID,919.116,VALID,0,VALID,104,VALID,298.794,VALID,22.3916,VALID,186,VALID,1.05703,
2016-01-14, 09:21:04,VALID,919.133,VALID,0,VALID,103.732,VALID,329.522,VALID,22.4323,VALID,195,VALID,0.180859,
2016-01-14, 09:22:04,VALID,919.139,VALID,0,VALID,103.556,VALID,346.39,VALID,22.4696,VALID,167,VALID,0.471875,
2016-01-14, 09:23:04,VALID,919.122,VALID,0,VALID,103.831,VALID,582.546,VALID,22.5672,VALID,169,VALID,0.00351562,
2016-01-14, 09:24:04,VALID,919.129,VALID,0,VALID,104,VALID,610.481,VALID,22.8616,VALID,112,VALID,0,
2016-01-14, 09:25:04,VALID,919.121,VALID,0,VALID,103.968,VALID,413.434,VALID,22.938,VALID,45,VALID,0.98125,
2016-01-14, 09:26:04,VALID,919.133,VALID,0,VALID,102.283,VALID,440.724,VALID,22.977,VALID,115,VALID,1.76484,
2016-01-14, 09:27:04,VALID,919.105,VALID,0,VALID,100.461,VALID,554.396,VALID,23.016,VALID,141,VALID,2.45313,
2016-01-14, 09:28:04,VALID,919.122,VALID,0,VALID,101.292,VALID,501.643,VALID,23.1331,VALID,101,VALID,0.952344,
2016-01-14, 09:29:04,VALID,919.104,VALID,0,VALID,98.9443,VALID,433.095,VALID,23.1722,VALID,105,VALID,1.57539,
2016-01-14, 09:30:04,VALID,919.107,VALID,0,VALID,95.2012,VALID,455.121,VALID,23.1331,VALID,117,VALID,2.40664,
2016-01-14, 09:31:04,VALID,919.087,VALID,0,VALID,89.1635,VALID,345.531,VALID,23.1349,VALID,73,VALID,2.57344,
2016-01-14, 09:32:04,VALID,919.088,VALID,0,VALID,90.894,VALID,319.637,VALID,23.1331,VALID,23,VALID,1.5,
2016-01-14, 09:33:04,VALID,919.107,VALID,0,VALID,95.1479,VALID,278.273,VALID,23.1935,VALID,104,VALID,0.729688,
2016-01-14, 09:34:04,VALID,919.108,VALID,0,VALID,86.8688,VALID,272.793,VALID,23.1935,VALID,61,VALID,1.86172,
2016-01-14, 09:35:04,VALID,919.092,VALID,0,VALID,86.2589,VALID,278.273,VALID,23.1544,VALID,40,VALID,1.92344,
2016-01-14, 09:36:04,VALID,919.116,VALID,0,VALID,94.6295,VALID,268.925,VALID,23.2502,VALID,118,VALID,0.8875,
2016-01-14, 09:37:04,VALID,919.095,VALID,0,VALID,90.5891,VALID,234.437,VALID,23.3088,VALID,118,VALID,0.00195313,
2016-01-14, 09:38:04,VALID,919.106,VALID,0,VALID,97.0537,VALID,222.511,VALID,23.3887,VALID,122,VALID,0,
2016-01-14, 09:39:04,VALID,919.065,VALID,0,VALID,84.7953,VALID,230.246,VALID,23.3691,VALID,139,VALID,1.70625,
2016-01-14, 09:40:04,VALID,919.072,VALID,0,VALID,89.2092,VALID,260.545,VALID,23.3496,VALID,83,VALID,1.78984,
2016-01-14, 09:41:04,VALID,919.02,VALID,0,VALID,89.3846,VALID,283.322,VALID,23.3283,VALID,95,VALID,0.953516,
2016-01-14, 09:42:04,VALID,918.993,VALID,0,VALID,84.9249,VALID,279.777,VALID,23.3283,VALID,63,VALID,0.905469,
2016-01-14, 09:43:04,VALID,919.005,VALID,0,VALID,86.5258,VALID,271.504,VALID,23.3283,VALID,27,VALID,1.55742,
2016-01-14, 09:44:04,VALID,919.002,VALID,0,VALID,91.2523,VALID,284.719,VALID,23.3869,VALID,50,VALID,1.27852,
2016-01-14, 09:45:04,VALID,919.023,VALID,0,VALID,89.5675,VALID,333.175,VALID,23.4259,VALID,89,VALID,0.0121094,
2016-01-14, 09:46:04,VALID,918.993,VALID,0,VALID,91.0998,VALID,389.259,VALID,23.4827,VALID,34,VALID,0.209766,
2016-01-14, 09:47:04,VALID,918.979,VALID,0,VALID,85.4814,VALID,419.45,VALID,23.6406,VALID,55,VALID,1.44727,
2016-01-14, 09:48:04,VALID,918.961,VALID,0,VALID,85.8397,VALID,430.409,VALID,23.7596,VALID,48,VALID,1.10898,
2016-01-14, 09:49:04,VALID,919.015,VALID,0,VALID,89.0796,VALID,449.104,VALID,23.9335,VALID,52,VALID,0.691016,
2016-01-14, 09:50:04,VALID,918.953,VALID,0,VALID,81.1589,VALID,449.749,VALID,24.0878,VALID,99,VALID,2.22539,
2016-01-14, 09:51:04,VALID,918.992,VALID,0,VALID,81.3647,VALID,429.55,VALID,24.3044,VALID,93,VALID,2.04727,
2016-01-14, 09:52:04,VALID,918.966,VALID,0,VALID,78.5669,VALID,438.575,VALID,24.3416,VALID,92,VALID,0.813672,
2016-01-14, 09:53:04,VALID,918.957,VALID,0,VALID,81.5172,VALID,436.748,VALID,24.5954,VALID,40,VALID,3.69492,
2016-01-14, 09:54:04,VALID,918.93,VALID,0,VALID,78.7118,VALID,421.062,VALID,24.693,VALID,71,VALID,2.27266,
2016-01-14, 09:55:04,VALID,918.955,VALID,0,VALID,74.9229,VALID,425.467,VALID,24.7126,VALID,80,VALID,2.62305,
2016-01-14, 09:56:04,VALID,918.982,VALID,0,VALID,78.0104,VALID,457.807,VALID,24.7321,VALID,80,VALID,1.99297,
2016-01-14, 09:57:04,VALID,918.994,VALID,0,VALID,80.0687,VALID,522.486,VALID,24.7516,VALID,63,VALID,2.04844,
2016-01-14, 09:58:04,VALID,919.002,VALID,0,VALID,76.8517,VALID,484.667,VALID,24.734,VALID,96,VALID,2.51484,
2016-01-14, 09:59:04,VALID,918.987,VALID,0,VALID,78.4678,VALID,440.831,VALID,24.6363,VALID,110,VALID,2.51641,
2016-01-14, 10:00:04,VALID,918.935,VALID,0,VALID,79.0929,VALID,392.268,VALID,24.6363,VALID,71,VALID,1.19102,
2016-01-14, 10:01:04,VALID,918.945,VALID,0,VALID,79.375,VALID,415.69,VALID,24.654,VALID,44,VALID,3.59844,
2016-01-14, 10:02:04,VALID,918.944,VALID,0,VALID,79.1997,VALID,493.155,VALID,24.4978,VALID,45,VALID,2.57109,
2016-01-14, 10:03:04,VALID,918.932,VALID,0,VALID,78.0562,VALID,994.475,VALID,24.4197,VALID,55,VALID,3.05078,
2016-01-14, 10:04:04,VALID,918.98,VALID,0,VALID,80.1145,VALID,477.254,VALID,24.3806,VALID,60,VALID,2.07734,
2016-01-14, 10:05:04,VALID,918.962,VALID,0,VALID,78.0562,VALID,814.082,VALID,24.2812,VALID,147,VALID,2.03398,
2016-01-14, 10:06:04,VALID,918.925,VALID,0,VALID,80.9683,VALID,366.267,VALID,24.4392,VALID,46,VALID,1.8582,
2016-01-14, 10:07:04,VALID,918.926,VALID,0,VALID,80.8692,VALID,366.697,VALID,24.6559,VALID,49,VALID,0.585938,
2016-01-14, 10:08:04,VALID,918.941,VALID,0,VALID,77.492,VALID,966.755,VALID,24.5759,VALID,91,VALID,2.21523,
2016-01-14, 10:09:04,VALID,918.906,VALID,0,VALID,79.0243,VALID,444.591,VALID,24.5368,VALID,71,VALID,2.66953,
2016-01-14, 10:10:04,VALID,918.859,VALID,0,VALID,76.1656,VALID,357.457,VALID,24.4587,VALID,91,VALID,4.59258,
2016-01-14, 10:11:04,VALID,918.848,VALID,0,VALID,76.844,VALID,387.97,VALID,24.3435,VALID,43,VALID,3.92852,
2016-01-14, 10:12:04,VALID,918.787,VALID,0,VALID,78.1476,VALID,894.233,VALID,24.244,VALID,47,VALID,5.25586,
2016-01-14, 10:13:04,VALID,918.815,VALID,0,VALID,77.614,VALID,347.035,VALID,24.1677,VALID,63,VALID,2.40078,
2016-01-14, 10:14:04,VALID,918.802,VALID,0,VALID,78.2391,VALID,284.934,VALID,24.1854,VALID,35,VALID,3.13281,
2016-01-14, 10:15:04,VALID,918.782,VALID,0,VALID,78.4145,VALID,255.817,VALID,24.1464,VALID,50,VALID,3.81484,
2016-01-14, 10:16:04,VALID,918.788,VALID,0,VALID,79.9696,VALID,255.925,VALID,24.0878,VALID,52,VALID,2.74297,
2016-01-14, 10:17:04,VALID,918.794,VALID,0,VALID,77.7588,VALID,261.727,VALID,24.0292,VALID,57,VALID,2.28867,
2016-01-14, 10:18:04,VALID,918.792,VALID,0,VALID,79.4512,VALID,272.471,VALID,24.0506,VALID,43,VALID,1.61914,
2016-01-14, 10:19:04,VALID,918.803,VALID,0,VALID,78.3001,VALID,303.306,VALID,24.0097,VALID,27,VALID,1.08555,
2016-01-14, 10:20:04,VALID,918.81,VALID,0,VALID,78.4907,VALID,790.337,VALID,24.1269,VALID,57,VALID,0.425,
2016-01-14, 10:21:04,VALID,918.822,VALID,0,VALID,80.206,VALID,659.581,VALID,24.3435,VALID,129,VALID,0,
2016-01-14, 10:22:04,VALID,918.817,VALID,0,VALID,77.675,VALID,400.003,VALID,24.6149,VALID,91,VALID,0.0375,
2016-01-14, 10:23:04,VALID,918.766,VALID,0,VALID,75.4794,VALID,326.729,VALID,24.7126,VALID,22,VALID,0.542578,
2016-01-14, 10:24:04,VALID,918.776,VALID,0,VALID,75.7844,VALID,352.407,VALID,24.9097,VALID,8,VALID,0.0246094,
2016-01-14, 10:25:04,VALID,918.745,VALID,0,VALID,76.1122,VALID,359.283,VALID,24.9859,VALID,218,VALID,0,
2016-01-14, 10:26:04,VALID,918.79,VALID,0,VALID,73.6498,VALID,859.422,VALID,25.0659,VALID,171,VALID,0,
2016-01-14, 10:27:04,VALID,918.7,VALID,0,VALID,75.2584,VALID,845.24,VALID,25.2593,VALID,59,VALID,0.425781,
2016-01-14, 10:28:04,VALID,918.705,VALID,0,VALID,72.7121,VALID,852.223,VALID,25.4565,VALID,42,VALID,0,
2016-01-14, 10:29:04,VALID,918.69,VALID,0,VALID,73.5736,VALID,294.281,VALID,25.6499,VALID,31,VALID,1.33203,
2016-01-14, 10:30:04,VALID,918.651,VALID,0,VALID,74.8848,VALID,294.926,VALID,25.5308,VALID,13,VALID,1.71367,
2016-01-14, 10:31:04,VALID,918.639,VALID,0,VALID,72.1861,VALID,373.788,VALID,25.3765,VALID,332,VALID,2.20625,
2016-01-14, 10:32:04,VALID,918.644,VALID,0,VALID,70.2269,VALID,674.408,VALID,25.2612,VALID,118,VALID,0.0832031,
2016-01-14, 10:33:04,VALID,918.638,VALID,0,VALID,70.6843,VALID,373.895,VALID,25.4156,VALID,80,VALID,0,
2016-01-14, 10:34:04,VALID,918.622,VALID,0,VALID,73.8175,VALID,820.206,VALID,25.5894,VALID,27,VALID,0.298828,
2016-01-14, 10:35:04,VALID,918.614,VALID,0,VALID,71.7973,VALID,354.019,VALID,25.5698,VALID,42,VALID,1.875,
2016-01-14, 10:36:04,VALID,918.605,VALID,0,VALID,74.1835,VALID,281.281,VALID,25.4351,VALID,77,VALID,1.10898,
2016-01-14, 10:37:04,VALID,918.563,VALID,0,VALID,72.9637,VALID,231.213,VALID,25.2788,VALID,67,VALID,1.88008,
2016-01-14, 10:38:04,VALID,918.58,VALID,0,VALID,73.7794,VALID,510.453,VALID,25.0817,VALID,86,VALID,2.93828,
2016-01-14, 10:39:04,VALID,918.556,VALID,0,VALID,74.7019,VALID,198.874,VALID,24.9859,VALID,44,VALID,1.925,
2016-01-14, 10:40:04,VALID,918.542,VALID,0,VALID,74.9992,VALID,214.99,VALID,24.9255,VALID,76,VALID,1.28984,
2016-01-14, 10:41:04,VALID,918.581,VALID,0,VALID,75.5785,VALID,230.032,VALID,24.8102,VALID,83,VALID,2.89375,
2016-01-14, 10:42:04,VALID,918.598,VALID,0,VALID,74.618,VALID,283.967,VALID,24.6326,VALID,68,VALID,4.09492,
2016-01-14, 10:43:04,VALID,918.568,VALID,0,VALID,73.8938,VALID,348.754,VALID,24.4978,VALID,102,VALID,2.6125,
2016-01-14, 10:44:04,VALID,918.597,VALID,0,VALID,74.6027,VALID,335.109,VALID,24.4783,VALID,100,VALID,1.73203,
2016-01-14, 10:45:04,VALID,918.623,VALID,0,VALID,73.8175,VALID,352.407,VALID,24.4392,VALID,88,VALID,3.53945,
2016-01-14, 10:46:04,VALID,918.6,VALID,0,VALID,76.2037,VALID,387.003,VALID,24.4569,VALID,91,VALID,1.86523,
2016-01-14, 10:47:04,VALID,918.623,VALID,0,VALID,77.1109,VALID,539.462,VALID,24.5564,VALID,65,VALID,1.66289,
2016-01-14, 10:48:04,VALID,918.619,VALID,0,VALID,75.3194,VALID,377.441,VALID,24.5935,VALID,119,VALID,3.4,
2016-01-14, 10:49:04,VALID,918.611,VALID,0,VALID,73.2077,VALID,326.621,VALID,24.5954,VALID,121,VALID,3.13164,
2016-01-14, 10:50:04,VALID,918.623,VALID,0,VALID,76.4476,VALID,342.2,VALID,24.5545,VALID,46,VALID,2.78281,
2016-01-14, 10:51:04,VALID,918.623,VALID,0,VALID,76.2723,VALID,305.778,VALID,24.5935,VALID,74,VALID,1.95078,
2016-01-14, 10:52:04,VALID,918.598,VALID,0,VALID,74.9229,VALID,745.427,VALID,24.5954,VALID,66,VALID,2.45547,
2016-01-14, 10:53:04,VALID,918.578,VALID,0,VALID,76.4552,VALID,843.091,VALID,24.6735,VALID,71,VALID,1.93672,
2016-01-14, 10:54:04,VALID,918.594,VALID,0,VALID,76.6687,VALID,821.602,VALID,24.8278,VALID,58,VALID,2.88789,
2016-01-14, 10:55:04,VALID,918.597,VALID,0,VALID,74.4732,VALID,798.61,VALID,24.984,VALID,60,VALID,2.35234,
2016-01-14, 10:56:04,VALID,918.575,VALID,0,VALID,74.0157,VALID,801.726,VALID,25.0817,VALID,73,VALID,2.36953,
2016-01-14, 10:57:04,VALID,918.539,VALID,0,VALID,72.1633,VALID,808.172,VALID,25.1988,VALID,56,VALID,1.92773,
2016-01-14, 10:58:04,VALID,918.547,VALID,0,VALID,74.0615,VALID,816.768,VALID,25.316,VALID,55,VALID,1.65273,
2016-01-14, 10:59:04,VALID,918.556,VALID,0,VALID,69.3655,VALID,836.967,VALID,25.4136,VALID,41,VALID,1.88125,
2016-01-14, 11:00:04,VALID,918.494,VALID,0,VALID,72.7274,VALID,839.545,VALID,25.4546,VALID,52,VALID,2.19414,
2016-01-14, 11:01:04,VALID,918.479,VALID,0,VALID,71.744,VALID,804.09,VALID,25.6304,VALID,51,VALID,2.01289,
2016-01-14, 11:02:04,VALID,918.473,VALID,0,VALID,71.2027,VALID,776.37,VALID,25.8042,VALID,51,VALID,3.08633,
2016-01-14, 11:03:04,VALID,918.408,VALID,0,VALID,71.683,VALID,743.493,VALID,25.8452,VALID,12,VALID,3.31797,
2016-01-14, 11:04:04,VALID,918.425,VALID,0,VALID,70.9893,VALID,724.153,VALID,25.8628,VALID,55,VALID,3.13164,
2016-01-14, 11:05:04,VALID,918.434,VALID,0,VALID,67.6273,VALID,751.336,VALID,25.7847,VALID,96,VALID,1.69453,
2016-01-14, 11:06:04,VALID,918.441,VALID,0,VALID,68.382,VALID,753.807,VALID,25.687,VALID,78,VALID,1.00898,
2016-01-14, 11:07:04,VALID,918.423,VALID,0,VALID,68.039,VALID,778.841,VALID,25.687,VALID,72,VALID,2.95273,
2016-01-14, 11:08:04,VALID,918.401,VALID,0,VALID,71.0197,VALID,780.023,VALID,25.687,VALID,84,VALID,1.14219,
2016-01-14, 11:09:04,VALID,918.358,VALID,0,VALID,68.4507,VALID,737.046,VALID,25.8237,VALID,99,VALID,1.99531,
2016-01-14, 11:10:04,VALID,918.31,VALID,0,VALID,69.8991,VALID,761.006,VALID,25.8237,VALID,3,VALID,3.06523,
2016-01-14, 11:11:04,VALID,918.3,VALID,0,VALID,69.1901,VALID,578.248,VALID,25.9214,VALID,42,VALID,2.67539,
2016-01-14, 11:12:04,VALID,918.31,VALID,0,VALID,69.0529,VALID,787.866,VALID,25.9409,VALID,67,VALID,2.7418,
2016-01-14, 11:13:04,VALID,918.312,VALID,0,VALID,71.2103,VALID,786.147,VALID,25.9995,VALID,44,VALID,2.72969,
2016-01-14, 11:14:04,VALID,918.323,VALID,0,VALID,69.4569,VALID,297.075,VALID,25.9995,VALID,39,VALID,2.76328,
2016-01-14, 11:15:04,VALID,918.298,VALID,0,VALID,69.1825,VALID,867.802,VALID,26.0776,VALID,18,VALID,3.18242,
2016-01-14, 11:16:04,VALID,918.288,VALID,0,VALID,69.4646,VALID,849.215,VALID,26.3491,VALID,74,VALID,2.41641,
2016-01-14, 11:17:04,VALID,918.29,VALID,0,VALID,68.3668,VALID,880.695,VALID,26.3902,VALID,55,VALID,1.97969,
2016-01-14, 11:18:04,VALID,918.188,VALID,0,VALID,67.5663,VALID,901.002,VALID,26.4097,VALID,66,VALID,3.49727,
2016-01-14, 11:19:04,VALID,918.239,VALID,0,VALID,66.3237,VALID,867.372,VALID,26.3882,VALID,53,VALID,2.47695,
2016-01-14, 11:20:04,VALID,918.218,VALID,0,VALID,67.3071,VALID,878.009,VALID,26.3686,VALID,81,VALID,2.68711,
2016-01-14, 11:21:04,VALID,918.225,VALID,0,VALID,68.5955,VALID,947.631,VALID,26.271,VALID,113,VALID,2.8918,
2016-01-14, 11:22:04,VALID,918.206,VALID,0,VALID,67.6654,VALID,915.828,VALID,26.2514,VALID,78,VALID,0.374219,
2016-01-14, 11:23:04,VALID,918.204,VALID,0,VALID,64.8219,VALID,893.373,VALID,26.2905,VALID,77,VALID,4.13984,
2016-01-14, 11:24:04,VALID,918.167,VALID,0,VALID,66.7049,VALID,340.696,VALID,26.1538,VALID,54,VALID,3.45391,
2016-01-14, 11:25:04,VALID,918.171,VALID,0,VALID,69.2816,VALID,318.241,VALID,26.1538,VALID,41,VALID,2.83203,
2016-01-14, 11:26:04,VALID,918.174,VALID,0,VALID,67.0403,VALID,370.135,VALID,26.1928,VALID,35,VALID,2.61719,
2016-01-14, 11:27:04,VALID,918.24,VALID,0,VALID,67.4977,VALID,943.441,VALID,26.1342,VALID,72,VALID,1.65156,
2016-01-14, 11:28:04,VALID,918.206,VALID,0,VALID,68.1838,VALID,632.936,VALID,26.1147,VALID,84,VALID,0.354297,
2016-01-14, 11:29:04,VALID,918.202,VALID,0,VALID,67.2538,VALID,335.861,VALID,26.1538,VALID,98,VALID,1.37227,
2016-01-14, 11:30:04,VALID,918.182,VALID,0,VALID,66.9641,VALID,673.011,VALID,26.1733,VALID,164,VALID,1.03906,
2016-01-14, 11:31:04,VALID,918.177,VALID,0,VALID,67.7722,VALID,852.438,VALID,26.2534,VALID,97,VALID,1.33477,
2016-01-14, 11:32:04,VALID,918.195,VALID,0,VALID,66.3466,VALID,356.382,VALID,26.3316,VALID,83,VALID,2.55156,
2016-01-14, 11:33:04,VALID,918.149,VALID,0,VALID,65.2107,VALID,346.713,VALID,26.2339,VALID,48,VALID,1.9082,
2016-01-14, 11:34:04,VALID,918.143,VALID,0,VALID,67.8408,VALID,699.979,VALID,26.273,VALID,5,VALID,1.95898,
2016-01-14, 11:35:04,VALID,918.146,VALID,0,VALID,66.2246,VALID,455.55,VALID,26.4097,VALID,68,VALID,1.22187,
2016-01-14, 11:36:04,VALID,918.151,VALID,0,VALID,65.2641,VALID,422.888,VALID,26.4117,VALID,106,VALID,0.0429688,
2016-01-14, 11:37:04,VALID,918.145,VALID,0,VALID,67.7645,VALID,341.985,VALID,26.3706,VALID,95,VALID,0.264453,
2016-01-14, 11:38:04,VALID,918.146,VALID,0,VALID,71.8202,VALID,343.704,VALID,26.2534,VALID,87,VALID,1.63008,
2016-01-14, 11:39:04,VALID,918.138,VALID,0,VALID,69.2511,VALID,346.39,VALID,26.1948,VALID,97,VALID,1.50937,
2016-01-14, 11:40:04,VALID,918.154,VALID,0,VALID,69.0529,VALID,342.308,VALID,26.019,VALID,121,VALID,0.810547,
2016-01-14, 11:41:04,VALID,918.174,VALID,0,VALID,70.6691,VALID,339.514,VALID,25.8628,VALID,100,VALID,1.63125,
2016-01-14, 11:42:04,VALID,918.154,VALID,0,VALID,68.2601,VALID,311.902,VALID,25.7847,VALID,125,VALID,0.614062,
2016-01-14, 11:43:04,VALID,918.145,VALID,0,VALID,68.504,VALID,289.984,VALID,25.648,VALID,109,VALID,1.94961,
2016-01-14, 11:44:04,VALID,918.099,VALID,0,VALID,68.969,VALID,293.852,VALID,25.6284,VALID,127,VALID,1.76563,
2016-01-14, 11:45:04,VALID,918.1,VALID,0,VALID,68.6565,VALID,338.01,VALID,25.6304,VALID,119,VALID,1.46953,
2016-01-14, 11:46:04,VALID,918.095,VALID,0,VALID,69.0224,VALID,459.741,VALID,25.7066,VALID,125,VALID,1.0375,
2016-01-14, 11:47:04,VALID,918.105,VALID,0,VALID,68.1762,VALID,396.458,VALID,25.7261,VALID,107,VALID,1.17617,
2016-01-14, 11:48:04,VALID,918.061,VALID,0,VALID,70.9816,VALID,382.598,VALID,25.8823,VALID,85,VALID,0.0121094,
2016-01-14, 11:49:04,VALID,918.084,VALID,0,VALID,68.7556,VALID,425.36,VALID,26.0581,VALID,128,VALID,1.02305,
2016-01-14, 11:50:04,VALID,918.061,VALID,0,VALID,67.2538,VALID,504.006,VALID,26.0386,VALID,98,VALID,0.0195313,
2016-01-14, 11:51:04,VALID,918.047,VALID,0,VALID,68.4659,VALID,447.707,VALID,26.0776,VALID,111,VALID,0,
2016-01-14, 11:52:04,VALID,918.019,VALID,0,VALID,69.1139,VALID,588.455,VALID,26.312,VALID,111,VALID,0,
2016-01-14, 11:53:04,VALID,917.985,VALID,0,VALID,66.1789,VALID,420.632,VALID,26.4878,VALID,162,VALID,0.620703,
2016-01-14, 11:54:04,VALID,917.96,VALID,0,VALID,67.6731,VALID,422.029,VALID,26.4077,VALID,95,VALID,0.589453,